Wind_Speed
4 4 4 5 5 4 4 3 2 0 1 2 3 3 2 3 3 4 5 6 6 7 8 9 9 10 10 11 12 12 12 12 13 13 13 14 14 15 15 16 16 16 17 17 18 18 19 19 20
3 3 3 4 4 4 3 3 3 2 1 1 2 3 3 3 3 3 4 5 6 7 8 9 10 10 10 11 12 12 13 13 13 14 14 14 15 15 16 16 17 17 18 18 19 19 20 20 20
2 2 3 3 2 2 2 3 3 2 2 2 2 3 4 4 4 4 5 5 6 7 8 9 10 11 11 11 12 13 13 14 14 14 14 15 15 16 16 17 17 18 19 19 20 20 21 21 21
2 2 2 2 2 2 2 2 3 2 2 2 3 4 4 4 5 5 5 6 6 7 8 9 10 10 11 11 12 12 13 14 14 15 15 16 16 17 17 18 18 19 19 20 20 21 22 22 22
4 4 3 3 3 3 3 3 3 4 4 4 4 5 6 6 6 6 6 7 7 8 9 10 10 11 11 12 13 13 14 14 15 15 16 17 17 18 18 19 19 20 20 21 21 22 23 23 24
7 6 5 5 5 5 4 5 5 6 6 6 6 7 8 8 9 9 9 9 10 10 11 11 12 13 13 14 15 15 15 16 16 17 17 18 19 19 20 20 21 22 22 22 23 23 23 24 24
10 9 8 7 7 7 7 7 7 8 8 8 8 9 10 11 11 12 12 12 13 13 13 13 14 15 15 16 16 17 17 18 18 19 19 20 20 21 21 22 23 23 24 24 24 25 25 25 26
13 12 11 10 10 10 10 10 10 10 10 10 10 10 11 12 13 14 14 14 15 15 15 16 16 16 17 17 17 18 19 19 20 20 21 21 22 22 23 24 24 25 25 26 26 26 27 27 28
16 16 14 14 13 12 12 12 12 12 12 12 12 12 12 13 14 15 16 16 17 17 17 17 18 18 18 18 18 19 19 20 21 21 22 23 23 24 24 25 26 26 27 27 27 28 28 29 29
19 18 18 17 16 15 15 15 15 14 15 14 14 14 14 15 16 17 17 18 18 18 18 18 18 19 19 19 20 20 20 21 22 22 23 23 24 25 25 26 26 27 27 28 28 29 29 30 30
22 21 21 20 19 18 18 17 17 17 17 17 17 16 16 16 17 18 18 19 20 20 20 20 20 20 20 20 20 20 21 21 22 23 23 24 24 25 26 26 27 28 28 29 29 30 30 30 31
25 24 24 23 22 21 21 20 19 19 20 20 19 19 19 19 20 20 20 20 21 21 22 21 21 21 21 21 21 21 21 22 22 23 24 24 25 26 26 27 28 29 29 30 30 31 31 32 32
27 27 26 25 25 24 24 23 22 21 22 22 21 22 22 22 22 22 22 22 22 23 23 23 22 22 22 22 22 22 23 23 23 24 24 25 26 27 27 28 29 29 30 31 31 32 32 33 33
30 29 29 28 28 27 26 25 24 24 25 24 24 24 24 24 24 24 24 24 24 24 24 24 24 23 24 24 24 24 24 24 24 24 25 26 26 27 28 29 29 30 31 31 32 32 33 33 34
33 32 31 31 31 30 29 27 28 27 27 27 27 26 26 26 26 26 26 26 25 26 26 25 25 25 25 25 25 25 25 25 25 25 26 27 27 28 29 29 30 31 32 32 33 33 34 34 35
34 34 33 33 33 33 32 30 31 30 29 29 29 28 28 28 28 27 27 27 27 27 27 27 26 26 26 26 26 26 26 26 26 27 27 28 28 29 30 31 32 32 33 33 34 34 34 35 35
35 35 34 35 35 35 35 32 32 33 32 31 30 30 29 29 29 29 29 29 29 29 29 28 28 28 27 27 27 27 27 27 27 28 28 29 29 30 31 32 32 33 33 34 34 35 35 36 36
35 36 35 35 37 38 37 34 34 35 34 33 32 31 31 31 31 31 31 30 30 30 30 29 29 29 29 29 29 28 28 28 29 29 29 30 30 31 32 32 33 34 34 35 35 36 36 37 37
36 36 35 35 37 38 37 35 34 36 35 34 33 33 33 33 33 33 32 32 31 31 30 30 30 29 29 29 29 29 29 29 30 30 30 31 32 32 33 33 34 35 35 36 36 37 37 38 39
36 36 35 35 37 39 37 35 33 35 36 35 34 34 34 34 33 33 33 33 32 31 31 31 30 30 30 30 30 30 30 30 31 31 31 32 33 33 34 34 35 36 37 37 38 38 39 40 41
35 35 35 36 37 39 39 34 30 33 35 34 34 34 35 34 34 34 33 33 32 32 32 31 31 31 30 30 31 31 31 32 32 32 33 33 34 34 35 36 37 37 38 39 40 40 41 41 42
34 34 36 36 37 38 39 37 28 31 33 33 34 34 34 35 35 34 34 34 33 33 32 32 32 31 31 31 31 32 32 32 33 33 34 35 35 36 36 37 38 39 40 40 41 42 42 43 44
34 35 36 37 38 38 36 39 30 29 31 32 34 34 34 35 35 34 34 33 32 32 32 32 32 32 32 32 32 32 33 33 34 34 35 36 36 37 38 39 40 40 41 42 43 44 44 45 46
35 36 37 38 38 38 34 37 33 28 30 31 33 33 34 34 34 33 32 32 32 32 32 32 32 32 32 32 33 33 34 34 35 35 36 37 37 38 40 41 41 42 43 44 45 46 46 47 48
36 36 37 38 38 37 34 35 33 29 28 30 31 32 32 32 32 31 31 31 32 32 32 32 33 33 33 33 34 35 35 36 36 37 37 38 39 40 41 42 43 44 45 46 46 47 48 48 49
35 36 37 38 38 36 35 34 30 28 27 28 29 30 30 31 30 30 30 31 32 32 32 33 33 33 34 34 35 36 36 36 37 38 38 39 40 41 42 43 44 45 46 47 47 48 48 49 50
35 36 36 38 39 38 36 33 29 27 27 28 28 28 29 30 29 29 30 31 31 32 32 33 33 34 35 35 36 36 37 37 38 39 39 40 41 42 44 45 46 46 47 47 48 49 50 51 52
35 35 36 37 38 38 36 32 29 26 27 27 28 29 30 30 30 30 30 31 31 31 32 33 34 35 35 36 36 37 38 39 39 40 41 42 43 44 45 46 47 47 48 49 49 50 51 53 54
35 35 35 36 38 37 36 32 29 27 27 27 28 29 30 30 30 30 30 31 32 32 33 34 34 35 36 37 38 39 39 40 41 42 43 44 45 46 47 47 48 49 49 50 51 52 53 54 55
36 35 35 36 36 36 37 33 29 29 28 29 29 30 30 30 31 31 31 31 32 32 33 34 35 36 37 38 39 40 41 41 43 44 45 46 47 48 48 49 49 50 51 52 53 54 54 55 56
Wind_Direction
54 51 54 59 63 61 62 59 54 94 226 229 233 239 259 266 268 265 265 263 263 264 264 263 264 266 268 269 270 271 272 272 272 273 273 274 275 276 277 277 277 277 278 278 279 280 279 277 276
43 45 48 56 58 53 50 44 40 22 296 255 243 245 259 270 278 279 276 275 273 273 272 270 268 269 271 272 273 274 275 276 277 277 277 278 278 278 278 278 278 278 278 278 279 280 279 278 277
6 22 36 45 47 38 28 23 19 358 332 298 272 268 267 273 283 287 287 286 284 282 280 278 275 273 273 273 274 275 276 277 277 278 278 278 278 278 279 278 278 278 279 280 280 280 280 280 279
306 330 346 1 2 1 350 347 353 333 318 307 294 284 277 282 288 291 294 293 291 289 286 285 283 280 279 279 278 279 279 279 279 279 278 278 279 279 279 279 279 279 280 280 280 281 280 280 280
279 289 300 310 314 314 318 316 310 304 301 296 290 286 285 288 290 291 295 295 293 292 291 289 287 285 282 282 283 282 282 283 283 282 281 280 280 280 281 281 281 281 281 281 281 281 281 281 280
268 276 280 283 287 289 292 295 296 294 290 287 283 281 283 288 288 290 290 290 288 288 288 288 287 286 285 284 284 284 284 284 284 284 283 283 282 282 282 282 282 282 282 282 282 282 281 281 280
262 267 271 272 275 278 280 282 282 283 282 281 281 281 282 284 287 288 288 288 287 286 285 286 286 285 284 284 284 284 284 284 283 283 283 283 283 283 284 284 284 283 283 283 283 283 282 281 281
260 264 267 270 270 273 277 279 280 282 281 280 280 280 282 283 285 286 287 287 286 286 285 285 285 285 284 283 283 284 284 284 284 283 283 283 283 283 283 283 283 283 284 283 283 283 282 281 281
258 262 266 267 268 269 274 277 278 280 282 280 279 279 281 284 285 286 287 286 286 286 286 285 285 286 285 284 284 284 284 284 284 284 284 284 284 285 285 285 285 284 284 284 284 283 283 282 281
256 260 263 264 266 267 270 274 275 278 279 279 278 278 281 283 284 285 286 286 286 286 287 286 286 286 286 285 285 285 285 285 285 286 286 286 286 286 286 286 286 286 286 285 285 284 284 283 282
254 257 259 262 264 266 267 270 274 277 278 279 279 279 280 281 282 282 283 284 285 286 287 287 287 286 286 285 285 286 286 286 286 286 286 287 287 287 287 287 287 287 287 286 286 286 285 284 283
253 255 258 260 263 264 266 269 272 276 277 279 279 279 279 280 280 280 280 281 283 284 286 286 286 285 284 285 285 285 286 286 287 287 287 287 287 288 288 288 288 288 288 287 287 286 285 285 284
252 255 257 260 261 263 265 268 271 273 274 278 280 280 280 281 280 279 279 280 281 282 284 284 284 283 283 284 284 284 285 286 287 288 288 288 288 288 289 289 289 289 289 288 287 287 286 285 285
252 254 256 259 261 263 264 267 270 270 272 276 278 280 279 280 279 279 279 279 280 281 282 283 283 282 282 283 283 283 284 285 286 287 288 288 289 289 290 291 291 291 290 290 288 288 287 287 286
252 253 256 259 261 263 264 266 267 268 271 273 276 278 279 279 278 278 278 278 279 280 280 280 280 281 281 281 282 283 283 284 285 286 288 288 288 289 290 290 290 291 290 290 289 288 288 287 287
254 255 256 259 260 262 264 266 267 268 269 272 275 277 278 278 278 277 276 277 277 278 278 279 279 279 279 280 280 281 282 283 284 286 287 287 288 289 289 290 290 291 291 290 290 290 289 288 287
255 256 257 258 261 262 263 264 266 267 268 271 273 275 276 276 277 276 275 275 276 276 276 277 278 278 279 279 279 280 281 282 284 286 287 288 288 289 289 290 290 290 290 290 290 289 289 288 287
255 256 256 258 260 262 263 264 264 267 268 270 272 274 274 275 275 275 275 275 275 275 275 275 276 277 277 278 278 279 280 281 283 285 287 288 288 288 289 289 290 290 290 290 290 290 289 288 288
254 255 256 258 260 262 263 264 265 266 268 270 271 272 274 274 274 275 274 274 275 275 275 275 275 275 275 276 278 278 279 281 283 285 286 287 288 289 289 290 290 290 290 290 289 289 289 288 288
254 255 257 257 260 263 263 264 265 266 267 268 270 271 272 273 273 273 274 274 274 274 274 274 274 274 274 276 277 278 280 281 283 285 286 288 289 290 290 290 290 291 291 290 290 290 289 289 288
255 257 257 258 260 264 266 264 264 266 267 267 268 269 270 271 272 272 273 273 273 273 273 272 272 273 274 276 277 278 280 281 283 285 287 288 289 290 290 290 291 291 291 291 291 291 290 290 290
256 258 259 260 261 263 268 268 260 265 267 267 267 268 269 270 271 272 272 272 272 272 271 271 271 272 273 275 277 278 280 282 283 285 287 289 289 290 291 291 292 292 292 292 292 292 292 291 291
256 257 259 261 263 264 267 271 265 263 265 265 266 267 268 269 270 271 271 271 271 270 270 270 271 272 273 274 277 279 281 282 284 286 288 289 291 291 292 292 293 293 293 294 294 294 293 293 292
255 257 259 261 264 266 267 270 271 266 264 264 265 267 268 269 270 270 269 269 269 269 269 269 270 271 273 275 277 279 282 284 286 287 289 291 292 293 293 294 294 294 294 295 295 295 294 294 293
255 258 260 262 264 268 269 269 272 270 267 266 266 267 268 269 269 269 268 268 267 267 268 268 270 271 273 275 278 280 283 285 287 289 291 292 293 293 294 294 295 295 295 296 296 296 295 295 295
255 257 259 264 266 268 268 269 271 272 269 267 266 266 267 267 267 266 267 267 267 267 268 269 270 272 274 277 280 282 284 286 288 290 291 292 294 295 295 296 296 296 296 296 297 297 296 296 296
252 256 260 263 266 268 269 271 271 272 269 267 266 266 266 266 265 264 265 265 266 267 268 269 271 274 276 278 281 283 286 288 290 291 293 294 295 296 296 297 297 297 297 297 297 297 297 297 297
251 254 257 261 266 269 270 272 275 272 268 266 265 265 265 266 265 264 264 264 266 267 269 271 273 275 277 280 282 285 287 289 291 292 294 295 296 296 297 297 297 297 297 297 298 298 298 298 297
251 253 257 260 264 268 271 272 274 274 270 267 265 264 264 264 264 265 264 264 266 269 270 272 274 276 278 281 284 287 289 290 292 293 294 295 296 297 297 298 298 298 298 298 298 298 298 298 298
248 251 255 259 264 267 270 271 273 274 271 268 265 264 263 264 265 265 266 268 270 271 273 274 276 278 280 283 285 287 289 291 292 293 294 295 296 297 298 298 298 298 298 299 299 299 299 299 299
Height
5862 5863 5863 5865 5866 5866 5865 5866 5865 5865 5866 5866 5866 5867 5867 5868 5869 5872 5870 5869 5869 5869 5869 5869 5869 5870 5870 5870 5870 5870 5870 5870 5870 5870 5870 5869 5869 5869 5869 5869 5868 5868 5868 5868 5867 5867 5867 5867 5866
5863 5863 5865 5865 5865 5865 5866 5866 5865 5866 5866 5866 5866 5866 5867 5867 5868 5868 5868 5868 5868 5868 5868 5868 5868 5868 5868 5868 5868 5868 5868 5868 5867 5867 5867 5867 5866 5866 5866 5866 5865 5865 5865 5865 5864 5864 5864 5863 5863
5863 5864 5865 5865 5865 5865 5866 5866 5866 5866 5866 5866 5866 5866 5866 5867 5867 5867 5867 5867 5867 5867 5867 5866 5866 5866 5866 5866 5866 5866 5865 5865 5865 5865 5864 5864 5863 5863 5863 5863 5862 5862 5862 5861 5861 5861 5860 5860 5859
5863 5864 5865 5865 5865 5865 5865 5866 5866 5866 5866 5866 5866 5866 5866 5866 5866 5866 5866 5866 5866 5865 5865 5865 5864 5864 5864 5864 5864 5863 5863 5863 5862 5862 5861 5861 5861 5860 5860 5859 5859 5859 5858 5858 5857 5857 5857 5856 5856
5862 5864 5864 5864 5864 5865 5865 5865 5865 5866 5866 5866 5866 5865 5865 5865 5865 5865 5865 5865 5864 5864 5864 5863 5863 5862 5862 5862 5861 5861 5860 5860 5859 5859 5858 5858 5858 5857 5857 5856 5856 5855 5855 5854 5854 5853 5853 5852 5852
5862 5863 5864 5864 5864 5864 5864 5864 5864 5865 5865 5865 5865 5864 5864 5864 5863 5863 5863 5863 5863 5862 5862 5861 5861 5860 5860 5859 5859 5858 5858 5857 5856 5856 5855 5855 5854 5854 5853 5853 5852 5851 5851 5850 5850 5849 5849 5848 5848
5860 5861 5862 5862 5862 5863 5863 5863 5863 5863 5864 5864 5864 5863 5863 5862 5862 5861 5861 5861 5861 5860 5860 5859 5859 5858 5857 5857 5856 5855 5855 5854 5853 5853 5852 5851 5851 5850 5849 5849 5848 5847 5847 5846 5845 5845 5844 5844 5843
5857 5859 5859 5860 5861 5861 5861 5861 5861 5862 5862 5862 5862 5862 5861 5861 5860 5859 5859 5859 5858 5858 5857 5857 5856 5855 5854 5854 5853 5852 5851 5851 5850 5849 5848 5847 5847 5846 5845 5845 5844 5843 5842 5841 5841 5840 5839 5839 5838
5854 5857 5857 5857 5858 5859 5858 5858 5859 5859 5859 5860 5860 5860 5859 5859 5858 5857 5856 5856 5855 5855 5854 5854 5853 5852 5851 5850 5850 5849 5848 5847 5846 5845 5844 5843 5842 5842 5841 5840 5839 5838 5837 5836 5836 5835 5834 5834 5833
5851 5852 5853 5854 5855 5855 5855 5856 5856 5856 5857 5857 5857 5857 5856 5856 5855 5854 5853 5852 5852 5851 5851 5850 5849 5848 5848 5847 5846 5845 5844 5843 5842 5841 5840 5839 5838 5837 5836 5835 5834 5833 5832 5831 5830 5830 5829 5828 5827
5847 5848 5849 5850 5850 5851 5852 5852 5853 5853 5853 5853 5854 5854 5853 5853 5852 5851 5850 5849 5848 5848 5847 5846 5846 5845 5844 5843 5842 5841 5840 5839 5838 5836 5835 5834 5833 5832 5831 5830 5829 5828 5827 5826 5825 5824 5823 5822 5821
5842 5843 5844 5845 5846 5847 5848 5848 5849 5850 5850 5850 5850 5850 5849 5849 5849 5848 5847 5846 5845 5844 5843 5842 5841 5840 5839 5839 5837 5836 5835 5834 5833 5832 5831 5830 5828 5827 5826 5825 5824 5822 5821 5820 5819 5818 5816 5815 5814
5837 5838 5839 5840 5841 5842 5843 5844 5845 5845 5845 5845 5845 5845 5845 5845 5844 5844 5843 5842 5840 5839 5839 5838 5837 5836 5835 5834 5833 5832 5831 5830 5828 5827 5826 5825 5823 5822 5821 5819 5818 5817 5815 5814 5813 5811 5810 5809 5807
5831 5832 5834 5835 5835 5837 5838 5839 5840 5840 5840 5841 5841 5840 5840 5840 5839 5839 5838 5837 5836 5835 5834 5833 5832 5831 5830 5829 5828 5827 5826 5825 5823 5822 5821 5819 5818 5817 5815 5814 5812 5811 5809 5808 5806 5805 5803 5802 5800
5825 5827 5828 5829 5830 5831 5833 5834 5834 5834 5835 5835 5835 5835 5835 5834 5834 5833 5833 5832 5831 5830 5829 5828 5827 5826 5825 5824 5823 5822 5820 5819 5818 5817 5815 5814 5812 5811 5809 5808 5806 5805 5803 5801 5800 5798 5796 5795 5793
5818 5820 5822 5823 5823 5824 5827 5829 5828 5828 5829 5829 5829 5829 5829 5829 5828 5828 5827 5827 5826 5825 5824 5823 5822 5821 5820 5818 5817 5816 5815 5814 5812 5811 5810 5808 5807 5805 5803 5801 5800 5798 5796 5795 5793 5791 5790 5788 5786
5811 5813 5815 5816 5816 5817 5819 5822 5822 5821 5822 5823 5823 5823 5823 5823 5822 5822 5821 5821 5820 5819 5818 5817 5816 5815 5814 5813 5811 5810 5809 5808 5807 5805 5804 5802 5801 5799 5797 5795 5793 5791 5789 5788 5786 5784 5782 5781 5779
5804 5806 5808 5809 5809 5810 5811 5814 5815 5815 5815 5816 5816 5816 5816 5816 5816 5815 5815 5814 5814 5813 5812 5811 5810 5809 5808 5806 5805 5804 5803 5802 5800 5799 5797 5796 5794 5792 5790 5788 5787 5784 5782 5780 5779 5777 5775 5773 5771
5796 5798 5800 5802 5801 5801 5803 5806 5808 5807 5808 5809 5809 5809 5809 5809 5809 5808 5808 5807 5807 5806 5806 5805 5804 5803 5801 5800 5799 5798 5797 5796 5794 5792 5791 5789 5787 5785 5784 5782 5779 5777 5775 5773 5771 5769 5767 5765 5763
5789 5791 5793 5794 5793 5793 5795 5798 5801 5800 5801 5802 5802 5802 5802 5802 5801 5801 5801 5800 5800 5799 5799 5798 5797 5796 5795 5794 5793 5792 5791 5789 5788 5786 5784 5782 5781 5779 5776 5774 5772 5770 5768 5765 5763 5761 5758 5756 5754
5782 5784 5785 5786 5786 5786 5787 5792 5794 5793 5793 5795 5795 5794 5794 5794 5794 5794 5794 5793 5793 5792 5792 5791 5790 5790 5789 5788 5787 5785 5784 5782 5781 5779 5778 5775 5773 5771 5769 5767 5764 5762 5759 5757 5754 5752 5749 5747 5744
5775 5777 5777 5777 5778 5779 5780 5781 5790 5787 5786 5787 5787 5787 5787 5787 5787 5786 5787 5786 5786 5786 5785 5784 5784 5783 5782 5781 5780 5779 5777 5776 5774 5772 5770 5768 5766 5764 5761 5759 5756 5753 5751 5748 5745 5742 5739 5737 5734
5768 5768 5769 5770 5770 5772 5773 5772 5781 5781 5780 5779 5779 5779 5779 5779 5779 5779 5779 5779 5779 5778 5778 5777 5777 5776 5775 5774 5773 5772 5771 5769 5767 5765 5763 5761 5758 5756 5753 5750 5747 5744 5742 5738 5735 5732 5729 5726 5723
5759 5761 5762 5762 5762 5765 5768 5766 5769 5773 5772 5772 5772 5771 5771 5771 5771 5771 5771 5772 5771 5771 5771 5770 5770 5769 5768 5767 5766 5765 5763 5761 5759 5757 5755 5752 5750 5747 5744 5741 5738 5735 5732 5729 5725 5722 5718 5715 5711
5753 5754 5754 5754 5755 5758 5760 5759 5762 5765 5765 5764 5764 5764 5764 5764 5764 5764 5764 5764 5764 5764 5764 5763 5763 5762 5761 5760 5759 5757 5756 5754 5752 5749 5747 5744 5741 5738 5735 5732 5729 5725 5722 5718 5715 5711 5707 5703 5700
5746 5747 5748 5748 5748 5750 5751 5752 5757 5758 5757 5756 5756 5756 5756 5756 5757 5757 5757 5757 5757 5757 5756 5756 5755 5754 5753 5752 5751 5749 5748 5746 5743 5741 5738 5736 5732 5729 5726 5722 5719 5715 5711 5708 5704 5700 5696 5692 5688
5738 5739 5741 5741 5740 5741 5743 5746 5750 5751 5750 5749 5749 5749 5749 5749 5750 5750 5750 5750 5750 5749 5749 5748 5748 5747 5746 5744 5743 5741 5739 5737 5735 5732 5729 5726 5723 5720 5716 5712 5709 5705 5701 5697 5693 5688 5684 5680 5675
5731 5732 5733 5733 5733 5733 5736 5739 5742 5743 5743 5742 5742 5742 5742 5742 5743 5743 5743 5742 5742 5742 5742 5741 5740 5739 5738 5737 5735 5733 5731 5729 5726 5723 5720 5717 5713 5710 5706 5702 5698 5694 5690 5685 5681 5677 5672 5668 5663
5724 5725 5726 5726 5727 5727 5728 5734 5735 5736 5736 5736 5735 5735 5735 5735 5735 5735 5735 5735 5735 5735 5734 5733 5732 5731 5730 5728 5727 5725 5722 5720 5717 5714 5710 5707 5703 5699 5695 5691 5687 5682 5678 5673 5669 5664 5659 5655 5649
5715 5717 5719 5720 5721 5721 5721 5728 5728 5728 5728 5727 5727 5727 5727 5728 5728 5728 5728 5728 5728 5727 5726 5725 5724 5723 5722 5720 5718 5715 5713 5710 5707 5703 5700 5696 5692 5688 5684 5679 5675 5670 5666 5661 5656 5651 5646 5641 5636